EHI
3 3 5 6 8 11 14 14 14 15 14 11 7 5 4 4 6 7 10 13 11 6 2 1 0 0 0 0 0 0 2 7 11 12 11 8 5 4 3 2 1 0 0
2 4 6 7 8 11 15 17 18 23 23 18 12 8 8 10 12 11 9 9 9 6 2 1 0 0 0 0 0 1 3 7 12 15 15 12 8 5 3 3 1 0 0
4 6 8 7 9 13 18 21 28 36 38 31 24 19 21 23 21 15 10 7 6 4 2 1 1 1 1 0 0 1 5 10 15 19 20 18 12 7 4 3 2 1 0
4 8 9 8 10 17 23 30 42 52 52 46 38 34 33 32 24 15 11 8 6 4 4 4 5 6 4 2 2 5 11 19 22 24 26 25 18 10 5 3 2 1 0
2 4 6 8 12 22 32 42 56 67 68 60 49 41 37 33 28 19 13 10 7 5 5 7 9 9 6 4 5 10 19 28 32 33 37 37 29 17 8 3 1 0 0
1 2 5 7 12 21 34 46 58 69 75 72 60 49 43 38 35 30 22 16 11 8 6 6 8 8 6 4 6 11 20 31 38 45 53 55 46 28 12 3 0 0 0
2 2 4 7 9 16 25 35 45 53 63 72 71 62 53 46 43 38 31 24 18 13 8 6 7 9 8 6 6 8 13 23 35 48 61 67 57 36 16 4 0 0 0
1 1 3 4 5 8 13 19 26 31 40 57 66 64 56 48 43 38 35 33 28 22 14 9 10 13 12 11 7 4 6 14 26 42 56 61 52 34 17 6 1 0 0
0 0 1 1 1 3 5 9 13 16 24 35 46 51 48 43 40 37 35 37 36 30 21 15 13 13 13 14 12 7 5 9 19 33 47 50 40 25 14 7 3 1 0
0 0 0 0 0 0 1 2 4 7 12 18 27 34 34 33 34 31 29 32 34 31 26 23 19 16 14 17 18 13 6 5 10 22 37 42 34 21 11 7 7 5 2
1 1 0 0 0 0 0 0 0 2 5 8 13 19 23 26 27 23 19 22 26 27 27 29 27 21 16 15 16 10 4 1 2 10 22 27 24 17 10 8 9 8 6
0 0 0 0 0 0 0 0 0 0 1 3 6 11 15 18 18 16 15 18 22 24 27 29 27 20 13 11 10 5 1 0 0 3 6 9 10 9 7 6 8 8 8
0 0 0 0 0 0 0 0 0 0 0 1 3 6 10 11 12 12 14 17 21 25 26 24 19 13 9 9 7 2 0 0 0 0 0 0 1 2 2 3 5 6 6
1 1 1 1 0 0 0 0 0 0 0 0 1 2 5 7 9 11 13 18 22 26 26 19 13 9 8 8 5 2 0 0 0 0 0 0 0 0 0 1 2 3 3
11 7 4 1 0 0 0 0 0 0 0 0 0 0 2 6 8 9 12 18 23 26 25 18 9 5 6 5 2 1 0 0 0 0 0 0 0 0 0 0 0 1 1
25 16 8 3 0 0 0 0 0 0 0 0 0 0 1 3 4 6 10 14 20 24 22 14 6 2 2 2 1 0 0 0 0 0 0 0 0 0 0 0 0 0 0
29 22 12 6 1 0 0 0 0 0 0 0 0 0 0 1 1 3 6 9 14 18 16 9 3 1 0 0 0 0 0 0 0 0 0 0 0 0 0 0 0 0 0
20 19 14 7 1 0 0 0 0 0 0 0 0 0 0 0 0 2 4 6 10 13 11 6 3 1 0 0 0 0 0 0 0 0 0 0 0 0 0 0 0 0 0
9 11 11 5 1 0 0 0 0 0 0 0 0 0 0 0 0 1 3 5 7 8 7 4 3 2 0 0 0 0 0 0 0 0 0 0 0 0 0 0 0 0 0
2 4 5 2 0 0 0 0 0 0 0 0 0 0 0 0 0 0 2 3 5 5 4 3 2 1 0 0 0 0 0 0 0 0 0 0 0 0 0 0 0 0 0
0 1 1 0 0 0 0 0 0 0 0 0 0 0 0 0 0 0 1 2 2 3 3 2 1 0 0 0 0 0 0 0 0 0 0 0 0 0 0 0 0 0 0
0 0 0 0 0 0 0 0 0 0 0 0 0 0 0 0 0 0 0 0 0 1 1 1 0 0 0 0 0 0 0 0 0 0 0 0 0 0 0 0 0 0 0
0 0 0 0 0 0 0 0 0 0 0 0 0 0 0 0 0 0 0 0 0 0 0 0 0 0 0 0 0 0 0 0 0 0 0 0 0 0 0 0 0 0 0
0 0 0 0 0 0 0 0 0 0 0 0 0 0 0 0 0 0 0 0 0 0 0 0 0 0 0 0 0 0 0 0 0 0 0 0 0 0 0 0 0 0 0
0 0 0 0 0 0 0 0 0 0 0 0 0 0 0 0 0 0 0 0 0 0 0 0 0 0 0 0 0 0 0 0 0 0 0 0 0 0 0 0 0 0 0
0 0 0 0 0 0 0 0 0 0 0 0 0 0 0 0 0 0 0 0 0 0 0 0 0 0 0 0 0 0 0 0 0 0 0 0 0 0 0 0 0 0 0
Wind_Speed
8 8 6 7 9 8 8 8 9 9 9 10 11 11 11 10 9 8 6 8 11 13 15 16 15 15 15 15 15 16 17 18 19 20 21 22 22 21 21 21 20 19 19
8 8 8 8 9 9 9 8 9 9 9 9 10 11 11 11 10 9 9 8 11 13 15 15 15 15 15 15 15 15 15 16 17 18 20 21 22 22 22 21 21 20 19
9 8 9 9 9 9 10 9 10 9 9 9 11 12 11 11 10 10 10 8 8 11 14 15 15 15 15 15 15 15 15 15 16 17 19 20 21 21 21 21 21 20 19
9 9 9 9 9 9 9 9 9 9 9 9 10 10 9 9 11 11 11 10 8 9 10 14 15 15 16 17 16 16 15 16 16 17 18 19 20 21 21 21 21 20 19
8 8 8 9 9 9 9 10 9 9 10 11 11 10 10 10 11 12 13 13 11 10 9 9 13 15 17 18 17 17 16 16 17 17 18 19 20 21 21 21 21 20 20
7 8 9 9 10 9 9 9 10 10 10 10 11 11 10 11 11 12 13 13 12 12 12 12 10 11 17 18 17 18 18 17 17 18 19 19 20 21 21 21 21 21 20
7 7 9 8 9 9 10 11 10 12 11 9 9 10 11 14 13 12 12 12 13 13 12 12 11 10 9 15 18 18 19 19 17 18 19 20 20 21 21 22 22 21 21
7 7 8 9 9 8 11 11 11 10 10 8 7 8 8 9 12 13 12 12 14 12 13 14 12 12 11 9 9 16 17 18 18 18 19 20 20 20 21 22 22 22 21
7 7 9 10 9 11 10 10 10 12 11 10 9 9 8 9 7 9 12 11 12 11 11 11 13 13 13 10 11 11 13 14 16 18 17 18 19 20 21 22 23 22 22
7 7 8 9 9 10 10 11 11 10 11 11 9 10 12 10 8 8 7 9 11 11 11 10 10 11 11 10 8 8 7 10 13 15 16 16 18 19 20 22 23 23 22
6 7 8 8 9 9 10 11 11 12 11 12 11 10 11 11 13 11 10 8 8 8 8 8 8 8 8 7 6 5 3 5 7 9 10 11 13 16 19 21 22 23 23
5 6 7 8 9 9 10 11 11 13 12 13 12 11 11 10 10 11 11 10 8 6 5 4 4 4 4 4 3 2 2 1 2 2 2 3 5 8 14 18 20 22 23
6 6 7 8 9 9 10 11 11 12 13 14 13 11 11 11 10 10 10 9 8 5 3 1 1 1 1 1 2 5 5 4 4 5 5 4 3 1 3 8 14 17 19
7 7 8 9 10 11 11 11 11 12 11 12 14 13 10 10 10 10 9 8 7 5 4 2 2 2 1 2 3 2 6 7 8 8 9 9 9 8 7 6 4 4 7
7 8 9 10 10 11 11 12 10 11 11 12 12 12 10 9 9 8 8 7 7 5 3 3 2 3 2 3 3 5 7 10 11 11 11 11 11 12 11 10 9 9 8
9 9 9 10 11 11 11 11 11 11 11 11 9 10 10 7 7 7 7 5 5 4 3 3 2 2 3 5 6 8 10 13 14 12 13 13 14 14 14 14 14 12 11
10 10 10 10 11 11 11 11 11 11 11 11 10 10 9 8 6 6 5 4 4 4 5 4 3 3 4 6 6 7 7 8 10 14 14 14 14 15 15 14 14 13 12
11 11 10 10 10 10 10 11 11 10 10 10 9 9 8 6 6 4 4 4 3 5 8 8 4 3 5 6 7 7 7 9 10 14 15 15 15 15 15 14 13 12 12
11 11 10 10 10 9 9 9 9 8 8 8 7 6 6 6 5 4 4 5 5 6 7 8 7 4 4 6 7 8 9 8 10 12 14 15 15 15 14 13 12 12 11
12 12 11 10 9 9 8 8 7 6 5 4 3 3 4 4 5 5 5 7 8 9 8 7 7 6 6 6 6 7 8 7 7 9 9 10 13 14 14 13 12 11 10
12 11 11 10 9 7 6 6 6 4 3 1 1 1 2 4 6 5 6 8 9 8 8 7 7 7 6 6 6 6 8 7 7 6 7 7 8 8 10 11 13 12 10
12 11 11 10 9 6 1 2 5 3 1 1 3 4 6 8 11 12 11 9 7 8 8 8 7 7 7 6 5 6 7 7 7 5 6 7 7 8 9 9 10 10 10
12 12 11 10 9 5 4 2 2 2 2 3 4 5 6 8 10 11 13 13 11 9 5 6 9 9 8 7 6 6 6 7 7 5 5 7 7 8 9 9 10 10 10
10 10 11 10 9 7 8 5 3 3 4 5 5 7 8 8 9 10 12 11 10 9 6 8 9 9 9 7 6 8 9 9 7 4 2 6 6 7 8 9 9 9 9
10 10 10 10 10 8 10 9 7 6 6 6 6 7 9 10 10 11 12 12 12 10 13 16 14 13 12 8 3 6 7 7 7 6 3 4 5 6 6 7 8 8 8
9 9 9 10 10 9 12 12 10 7 8 7 7 7 9 10 9 8 11 12 12 11 11 12 10 10 9 7 4 2 3 5 7 7 4 2 4 4 5 5 5 4 5
Wind_Direction
258 262 264 263 266 267 256 247 255 261 257 253 250 247 250 251 251 254 254 221 224 236 245 248 247 244 239 236 236 234 229 226 223 219 218 217 218 219 220 221 221 221 220
265 267 264 262 263 264 265 265 261 256 252 251 251 249 249 251 249 251 255 246 224 232 242 248 251 250 245 241 237 234 229 227 223 219 218 217 217 218 219 220 221 221 220
266 266 269 267 264 266 264 261 260 257 252 248 247 247 246 246 248 246 249 254 250 232 231 237 244 248 249 247 243 236 231 227 223 219 217 216 217 217 217 219 220 220 219
275 273 271 271 272 269 264 259 255 253 250 249 248 247 246 242 244 245 247 244 248 256 241 230 233 239 247 251 249 243 236 228 223 219 216 215 215 216 216 218 219 219 218
289 284 282 282 279 273 268 265 259 254 254 251 250 245 244 243 243 245 247 246 244 246 255 246 231 232 242 250 251 248 241 233 226 220 217 215 215 215 215 216 217 217 217
298 298 287 286 286 277 270 264 265 260 258 257 258 256 249 245 243 243 244 244 243 243 247 255 253 238 231 236 240 244 245 241 232 224 220 217 215 214 214 215 215 216 216
307 299 295 299 288 284 283 279 272 266 260 255 257 257 252 245 242 242 239 242 242 241 241 246 252 258 249 227 226 233 239 242 238 229 223 219 217 214 212 213 213 214 214
305 296 300 294 291 289 280 277 274 272 270 254 247 257 259 247 235 235 235 235 240 241 242 243 245 247 255 259 239 223 231 238 241 237 228 221 218 214 211 211 211 212 212
298 299 297 294 298 290 285 285 281 271 270 265 245 245 254 254 260 238 228 233 237 238 242 246 245 246 246 249 257 234 223 231 239 240 234 225 219 215 212 211 210 210 210
293 296 293 292 290 289 289 281 276 276 270 266 255 243 250 269 269 267 239 229 231 235 241 246 249 247 248 251 248 263 247 239 240 244 242 234 224 216 213 211 210 209 209
289 291 292 293 289 284 285 284 283 275 270 265 263 255 249 249 249 256 261 249 232 230 231 236 245 252 255 251 254 253 230 235 238 242 243 241 231 222 215 212 212 211 209
293 296 295 292 287 287 285 280 276 270 266 266 264 260 254 249 243 241 247 249 248 242 228 236 250 253 253 253 249 79 103 167 193 203 232 242 239 231 221 216 215 214 212
298 307 302 296 292 289 286 282 278 274 270 265 259 255 253 252 255 254 253 253 251 244 220 211 271 277 245 213 125 110 100 99 101 96 88 80 72 66 222 219 219 219 215
297 307 295 290 290 289 287 283 280 274 267 264 261 257 255 253 252 246 245 246 242 233 213 163 80 37 42 83 84 94 100 86 87 88 86 81 76 72 70 79 109 166 186
280 285 286 288 288 288 287 285 277 275 271 265 260 256 251 250 248 246 243 239 234 227 199 135 97 43 62 87 92 93 91 82 82 82 83 80 77 75 74 79 84 88 97
273 275 278 283 287 289 288 284 280 274 270 265 260 256 252 247 245 240 236 228 228 220 162 106 95 91 92 95 91 95 94 87 76 78 80 82 82 78 75 76 78 79 82
271 268 272 279 285 289 292 290 287 282 274 268 261 254 251 245 236 226 215 209 202 179 138 107 93 95 100 106 105 104 103 94 83 77 81 82 82 81 78 76 76 77 78
272 267 268 273 279 286 291 291 291 289 280 271 261 250 244 231 218 213 190 179 157 142 134 128 117 107 104 106 107 106 101 94 92 82 82 82 82 80 78 76 75 74 73
276 268 264 266 274 283 287 290 292 290 287 279 267 247 233 215 200 180 163 145 129 122 122 127 123 124 123 122 115 103 96 101 101 103 94 88 85 83 79 76 75 73 72
279 269 261 261 267 275 281 287 290 290 293 292 281 252 225 200 177 156 142 132 126 123 124 128 132 132 126 131 131 124 115 103 101 100 95 101 102 94 87 78 73 70 67
281 270 261 256 256 260 272 288 285 281 284 297 41 92 100 101 105 117 129 133 134 135 137 137 136 136 136 148 138 127 117 115 105 113 121 123 120 105 98 86 72 64 62
293 276 261 254 247 247 105 315 289 264 246 140 109 98 97 100 99 94 95 100 119 140 141 142 139 132 133 133 130 141 145 137 117 106 111 105 99 90 77 72 62 62 59
303 285 263 251 241 210 154 200 264 250 149 125 119 115 105 106 115 112 101 92 79 75 103 128 128 129 128 128 139 125 94 93 90 113 125 112 106 100 95 82 75 70 63
301 293 272 249 235 199 168 177 190 177 129 117 117 117 115 119 117 121 119 111 102 83 87 101 106 105 105 104 103 104 111 115 113 99 119 121 118 112 107 100 98 85 74
296 295 284 258 233 196 174 179 194 159 135 124 121 121 123 122 121 124 122 118 111 97 72 72 76 80 69 57 69 147 157 145 123 106 93 118 124 123 113 112 123 130 110
285 292 286 269 238 207 176 181 199 169 146 138 128 124 122 126 133 138 133 129 125 121 118 110 104 113 107 93 46 74 138 134 129 111 77 87 123 148 128 100 81 91 105